| time (UTC) | temp C | wind direction | speed KPH | gust KPH | rain 1hr cm | rain 24hr cm | rain mn cm | humidity % | barometer mb |
| 20260506051002 | 24 | 68 | 11.3 | 14.5 | 0.00 | 0.00 | 0.00 | 33 | 1217.5 |
| 20260506050502 | 24 | 22 | 3.2 | 14.5 | 0.00 | 0.00 | 0.00 | 33 | 1217.5 |
| 20260506044810 | 23 | 34 | 8.0 | 8.0 | 0.00 | 0.00 | 0.00 | 35 | 1215.5 |
| 20260506044310 | 23 | 101 | 8.0 | 9.7 | 0.00 | 0.00 | 0.00 | 36 | 1215.5 |
| 20260506043810 | 23 | 56 | 6.4 | 11.3 | 0.00 | 0.00 | 0.00 | 35 | 1214.5 |
| 20260506043310 | 23 | 30 | 8.0 | 14.5 | 0.00 | 0.00 | 0.00 | 36 | 1214.5 |
| 20260506042619 | 23 | 120 | 6.4 | 14.5 | 0.00 | 0.00 | 0.00 | 37 | 1214.5 |
| 20260506042119 | 23 | 82 | 9.7 | 14.5 | 0.00 | 0.00 | 0.00 | 37 | 1214.5 |
| 20260506041619 | 22 | 90 | 6.4 | 11.3 | 0.00 | 0.00 | 0.00 | 38 | 1214.5 |
| 20260506041119 | 22 | 34 | 8.0 | 19.3 | 0.00 | 0.00 | 0.00 | 38 | 1212.5 |
| 20260506040619 | 22 | 52 | 9.7 | 19.3 | 0.00 | 0.00 | 0.00 | 39 | 1212.5 |
| 20260506040119 | 22 | 22 | 11.3 | 14.5 | 0.00 | 0.00 | 0.00 | 40 | 1212.5 |
| 20260506035619 | 22 | 90 | 6.4 | 12.9 | 0.00 | 0.00 | 0.00 | 40 | 1209.4 |
| 20260506035119 | 22 | 75 | 9.7 | 12.9 | 0.00 | 0.00 | 0.00 | 41 | 1209.4 |
| 20260506034428 | 22 | 62 | 11.3 | 16.1 | 0.00 | 0.00 | 0.00 | 41 | 1209.4 |
| 20260506033928 | 22 | 60 | 9.7 | 16.1 | 0.00 | 0.00 | 0.00 | 42 | 1208.4 |
| 20260506033428 | 21 | 34 | 4.8 | 16.1 | 0.00 | 0.00 | 0.00 | 43 | 1208.4 |
| 20260506032928 | 21 | 68 | 9.7 | 16.1 | 0.00 | 0.00 | 0.00 | 43 | 1208.4 |
| 20260506032237 | 21 | 45 | 11.3 | 17.7 | 0.00 | 0.00 | 0.00 | 44 | 1204.4 |
| 20260506031737 | 21 | 90 | 17.7 | 17.7 | 0.00 | 0.00 | 0.00 | 45 | 1204.4 |
| 20260506031237 | 21 | 30 | 8.0 | 12.9 | 0.00 | 0.00 | 0.00 | 45 | 1201.4 |
| 20260506030737 | 21 | 82 | 9.7 | 12.9 | 0.00 | 0.00 | 0.00 | 46 | 1201.4 |
| 20260506030045 | 21 | 107 | 4.8 | 9.7 | 0.00 | 0.00 | 0.00 | 49 | 1201.4 |
| 20260506025545 | 20 | 98 | 4.8 | 12.9 | 0.00 | 0.00 | 0.00 | 50 | 1199.3 |
| 20260506025045 | 20 | 68 | 9.7 | 12.9 | 0.00 | 0.00 | 0.00 | 50 | 1199.3 |
| 20260506024545 | 20 | 56 | 8.0 | 12.9 | 0.00 | 0.00 | 0.00 | 50 | 1199.3 |
| 20260506024045 | 20 | 79 | 11.3 | 14.5 | 0.00 | 0.00 | 0.00 | 51 | 1197.3 |
| 20260506023354 | 20 | 90 | 8.0 | 14.5 | 0.00 | 0.00 | 0.00 | 53 | 1197.3 |
| 20260506022854 | 19 | 52 | 6.4 | 14.5 | 0.00 | 0.00 | 0.00 | 53 | 1197.3 |
| 20260506022354 | 19 | 60 | 6.4 | 17.7 | 0.00 | 0.00 | 0.00 | 54 | 1192.3 |
| 20260506021854 | 19 | 68 | 6.4 | 17.7 | 0.00 | 0.00 | 0.00 | 55 | 1192.3 |
| 20260506021354 | 18 | 90 | 9.7 | 14.5 | 0.00 | 0.00 | 0.00 | 56 | 1192.3 |
| 20260506020854 | 18 | 90 | 9.7 | 14.5 | 0.00 | 0.00 | 0.00 | 57 | 1193.3 |
| 20260506020203 | 18 | 75 | 9.7 | 14.5 | 0.00 | 0.00 | 0.00 | 58 | 1193.3 |
| 20260506015703 | 18 | 112 | 4.8 | 14.5 | 0.00 | 0.00 | 0.00 | 58 | 1193.3 |
| 20260506015203 | 18 | 98 | 8.0 | 14.5 | 0.00 | 0.00 | 0.00 | 59 | 1193.3 |
| 20260506014703 | 18 | 60 | 8.0 | 14.5 | 0.00 | 0.00 | 0.00 | 59 | 1193.3 |
| 20260506014203 | 17 | 45 | 12.9 | 14.5 | 0.00 | 0.00 | 0.00 | 60 | 1191.3 |
| 20260506013703 | 17 | 90 | 8.0 | 12.9 | 0.00 | 0.00 | 0.00 | 61 | 1191.3 |
| 20260506013012 | 17 | 90 | 8.0 | 16.1 | 0.00 | 0.00 | 0.00 | 62 | 1191.3 |
| 20260506012321 | 17 | 68 | 16.1 | 16.1 | 0.00 | 0.00 | 0.00 | 63 | 1190.2 |
| 20260506011820 | 17 | 68 | 9.7 | 14.5 | 0.00 | 0.00 | 0.00 | 63 | 1190.2 |
| 20260506011320 | 17 | 76 | 12.9 | 14.5 | 0.00 | 0.00 | 0.00 | 64 | 1190.2 |
| 20260506010820 | 17 | 68 | 12.9 | 14.5 | 0.00 | 0.00 | 0.00 | 64 | 1190.2 |
| 20260506010321 | 17 | 82 | 6.4 | 9.7 | 0.00 | 0.00 | 0.00 | 65 | 1190.2 |
| 20260506005821 | 17 | 79 | 6.4 | 16.1 | 0.00 | 0.00 | 0.00 | 65 | 1190.2 |
| 20260506005320 | 17 | 90 | 16.1 | 16.1 | 0.00 | 0.00 | 0.00 | 66 | 1189.2 |
| 20260506004821 | 16 | 68 | 4.8 | 11.3 | 0.00 | 0.00 | 0.00 | 66 | 1189.2 |
| 20260506004129 | 16 | 79 | 9.7 | 11.3 | 0.00 | 0.00 | 0.00 | 67 | 1189.2 |
| 20260506003629 | 16 | 90 | 3.2 | 9.7 | 0.00 | 0.00 | 0.00 | 67 | 1189.2 |
| 20260506003129 | 16 | 112 | 8.0 | 9.7 | 0.00 | 0.00 | 0.00 | 67 | 1189.2 |
| 20260506002629 | 16 | 90 | 1.6 | 6.4 | 0.00 | 0.00 | 0.00 | 67 | 1186.2 |
| 20260506002129 | 16 | 79 | 6.4 | 6.4 | 0.00 | 0.00 | 0.00 | 67 | 1186.2 |
| 20260506001438 | 16 | 90 | 6.4 | 6.4 | 0.00 | 0.00 | 0.00 | 67 | 1186.2 |
| 20260506000938 | 15 | 90 | 6.4 | 6.4 | 0.00 | 0.00 | 0.00 | 67 | 1189.2 |
| 20260506000438 | 15 | 68 | 6.4 | 9.7 | 0.00 | 0.00 | 0.00 | 67 | 1189.2 |
| 20260505235938 | 15 | 101 | 8.0 | 9.7 | 0.00 | 0.00 | 0.00 | 67 | 1189.2 |
| 20260505235246 | 15 | 0.0 | 0.0 | 0.00 | 0.00 | 0.00 | 67 | 1186.2 | |
| 20260505234747 | 15 | 0.0 | 0.0 | 0.00 | 0.00 | 0.00 | 67 | 1186.2 | |
| 20260505234247 | 15 | 0.0 | 0.0 | 0.00 | 0.00 | 0.00 | 67 | 1188.2 | |
| 20260505233747 | 15 | 0.0 | 0.0 | 0.00 | 0.00 | 0.00 | 67 | 1188.2 | |
| 20260505233246 | 15 | 0.0 | 0.0 | 0.00 | 0.00 | 0.00 | 67 | 1188.2 | |
| 20260505232747 | 15 | 0.0 | 0.0 | 0.00 | 0.00 | 0.00 | 67 | 1191.3 | |
| 20260505232055 | 15 | 0.0 | 0.0 | 0.00 | 0.00 | 0.00 | 67 | 1191.3 | |
| 20260505231555 | 15 | 0.0 | 0.0 | 0.00 | 0.00 | 0.00 | 66 | 1191.3 | |
| 20260505231055 | 15 | 0.0 | 0.0 | 0.00 | 0.00 | 0.00 | 66 | 1193.3 | |
| 20260505230555 | 15 | 0.0 | 0.0 | 0.00 | 0.00 | 0.00 | 66 | 1193.3 | |
| 20260505230055 | 15 | 0.0 | 0.0 | 0.00 | 0.00 | 0.00 | 66 | 1193.3 | |
| 20260505225555 | 15 | 0.0 | 0.0 | 0.00 | 0.00 | 0.00 | 66 | 1197.3 | |
| 20260505224904 | 15 | 0.0 | 0.0 | 0.00 | 0.00 | 0.00 | 66 | 1197.3 | |
| 20260505224404 | 15 | 0.0 | 0.0 | 0.00 | 0.00 | 0.00 | 66 | 1197.3 | |
| 20260505223903 | 15 | 0.0 | 0.0 | 0.00 | 0.00 | 0.00 | 65 | 1196.3 | |
| 20260505223404 | 15 | 0.0 | 0.0 | 0.00 | 0.00 | 0.00 | 65 | 1196.3 | |
| 20260505222712 | 15 | 0.0 | 0.0 | 0.00 | 0.00 | 0.00 | 65 | 1197.3 | |
| 20260505222213 | 15 | 0.0 | 0.0 | 0.00 | 0.00 | 0.00 | 65 | 1197.3 | |
| 20260505221712 | 15 | 0.0 | 0.0 | 0.00 | 0.00 | 0.00 | 65 | 1197.3 | |
| 20260505221212 | 15 | 0.0 | 0.0 | 0.00 | 0.00 | 0.00 | 65 | 1196.3 | |
| 20260505220712 | 15 | 0 | 0.0 | 6.4 | 0.00 | 0.00 | 0.00 | 65 | 1196.3 |
| 20260505220021 | 15 | 112 | 6.4 | 6.4 | 0.00 | 0.00 | 0.00 | 64 | 1196.3 |
| 20260505215521 | 15 | 112 | 6.4 | 6.4 | 0.00 | 0.00 | 0.00 | 64 | 1195.3 |
| 20260505215021 | 15 | 112 | 4.8 | 6.4 | 0.00 | 0.00 | 0.00 | 64 | 1195.3 |
| 20260505214521 | 15 | 112 | 4.8 | 6.4 | 0.00 | 0.00 | 0.00 | 64 | 1195.3 |
| 20260505214021 | 15 | 112 | 6.4 | 6.4 | 0.00 | 0.00 | 0.00 | 63 | 1200.3 |
| 20260505213521 | 15 | 135 | 4.8 | 6.4 | 0.00 | 0.00 | 0.00 | 63 | 1200.3 |
| 20260505212830 | 15 | 124 | 4.8 | 6.4 | 0.00 | 0.00 | 0.00 | 63 | 1200.3 |
| 20260505212330 | 15 | 112 | 4.8 | 4.8 | 0.00 | 0.00 | 0.00 | 62 | 1201.4 |
| 20260505211830 | 15 | 112 | 4.8 | 6.4 | 0.00 | 0.00 | 0.00 | 62 | 1201.4 |
| 20260505211138 | 15 | 112 | 4.8 | 9.7 | 0.00 | 0.00 | 0.00 | 62 | 1201.4 |
| 20260505210639 | 15 | 90 | 9.7 | 9.7 | 0.00 | 0.00 | 0.00 | 62 | 1201.4 |
| 20260505210139 | 15 | 90 | 9.7 | 9.7 | 0.00 | 0.00 | 0.00 | 61 | 1201.4 |
| 20260505205638 | 15 | 90 | 9.7 | 9.7 | 0.00 | 0.00 | 0.00 | 61 | 1201.4 |
| 20260505205139 | 15 | 90 | 4.8 | 4.8 | 0.00 | 0.00 | 0.00 | 61 | 1201.4 |
| 20260505204638 | 15 | 101 | 4.8 | 4.8 | 0.00 | 0.00 | 0.00 | 61 | 1201.4 |
| 20260505203947 | 15 | 112 | 4.8 | 4.8 | 0.00 | 0.00 | 0.00 | 60 | 1202.4 |
| 20260505203448 | 15 | 0.0 | 0.0 | 0.00 | 0.00 | 0.00 | 60 | 1202.4 | |
| 20260505202947 | 15 | 0.0 | 0.0 | 0.00 | 0.00 | 0.00 | 60 | 1202.4 | |
| 20260505202447 | 15 | 0.0 | 0.0 | 0.00 | 0.00 | 0.00 | 60 | 1201.4 | |
| 20260505201756 | 15 | 0.0 | 0.0 | 0.00 | 0.00 | 0.00 | 59 | 1201.4 | |
| 20260505201256 | 15 | 0.0 | 0.0 | 0.00 | 0.00 | 0.00 | 59 | 1202.4 | |
| 20260505200756 | 15 | 0.0 | 0.0 | 0.00 | 0.00 | 0.00 | 59 | 1202.4 | |
| 20260505200256 | 15 | 0.0 | 0.0 | 0.00 | 0.00 | 0.00 | 59 | 1202.4 | |
| 20260505195756 | 15 | 0.0 | 0.0 | 0.00 | 0.00 | 0.00 | 58 | 1204.4 | |
| 20260505195256 | 15 | 0.0 | 0.0 | 0.00 | 0.00 | 0.00 | 58 | 1204.4 | |
| 20260505194604 | 15 | 0.0 | 0.0 | 0.00 | 0.00 | 0.00 | 58 | 1204.4 | |
| 20260505194105 | 15 | 0.0 | 0.0 | 0.00 | 0.00 | 0.00 | 58 | 1204.4 | |
| 20260505193605 | 15 | 0.0 | 0.0 | 0.00 | 0.00 | 0.00 | 58 | 1204.4 | |
| 20260505193104 | 15 | 0.0 | 0.0 | 0.00 | 0.00 | 0.00 | 58 | 1204.4 | |
| 20260505192604 | 16 | 0.0 | 0.0 | 0.00 | 0.00 | 0.00 | 58 | 1205.4 | |
| 20260505192104 | 16 | 0.0 | 0.0 | 0.00 | 0.00 | 0.00 | 57 | 1205.4 | |
| 20260505191604 | 16 | 0.0 | 0.0 | 0.00 | 0.00 | 0.00 | 57 | 1205.4 | |
| 20260505190913 | 16 | 0.0 | 0.0 | 0.00 | 0.00 | 0.00 | 57 | 1206.4 | |
| 20260505190413 | 16 | 0.0 | 0.0 | 0.00 | 0.00 | 0.00 | 57 | 1206.4 | |
| 20260505185913 | 16 | 0.0 | 0.0 | 0.00 | 0.00 | 0.00 | 57 | 1206.4 | |
| 20260505185413 | 16 | 0.0 | 0.0 | 0.00 | 0.00 | 0.00 | 56 | 1207.4 | |
| 20260505184913 | 16 | 180 | 3.2 | 3.2 | 0.00 | 0.00 | 0.00 | 56 | 1207.4 |
| 20260505184222 | 16 | 180 | 3.2 | 3.2 | 0.00 | 0.00 | 0.00 | 56 | 1206.4 |
| 20260505183722 | 16 | 180 | 3.2 | 6.4 | 0.00 | 0.00 | 0.00 | 56 | 1206.4 |
| 20260505183030 | 16 | 135 | 6.4 | 6.4 | 0.00 | 0.00 | 0.00 | 55 | 1206.4 |
| 20260505182530 | 16 | 135 | 6.4 | 6.4 | 0.00 | 0.00 | 0.00 | 55 | 1207.4 |
| 20260505182031 | 16 | 135 | 6.4 | 6.4 | 0.00 | 0.00 | 0.00 | 55 | 1207.4 |
| 20260505181530 | 16 | 0.0 | 0.0 | 0.00 | 0.00 | 0.00 | 55 | 1207.4 | |
| 20260505181030 | 16 | 112 | 6.4 | 6.4 | 0.00 | 0.00 | 0.00 | 55 | 1208.4 |
| 20260505180530 | 16 | 112 | 6.4 | 6.4 | 0.00 | 0.00 | 0.00 | 55 | 1208.4 |
| 20260505175839 | 16 | 128 | 6.4 | 6.4 | 0.00 | 0.00 | 0.00 | 54 | 1208.4 |
| 20260505175339 | 16 | 112 | 1.6 | 1.6 | 0.00 | 0.00 | 0.00 | 54 | 1208.4 |
| 20260505174839 | 16 | 112 | 1.6 | 8.0 | 0.00 | 0.00 | 0.00 | 54 | 1208.4 |
| 20260505174339 | 16 | 101 | 4.8 | 8.0 | 0.00 | 0.00 | 0.00 | 54 | 1208.4 |
| 20260505173839 | 16 | 90 | 3.2 | 3.2 | 0.00 | 0.00 | 0.00 | 54 | 1208.4 |
| 20260505173339 | 16 | 112 | 3.2 | 4.8 | 0.00 | 0.00 | 0.00 | 54 | 1208.4 |
| 20260505172839 | 16 | 112 | 3.2 | 4.8 | 0.00 | 0.00 | 0.00 | 54 | 1208.4 |
| 20260505172148 | 16 | 79 | 4.8 | 4.8 | 0.00 | 0.00 | 0.00 | 54 | 1207.4 |
| 20260505171648 | 16 | 112 | 4.8 | 4.8 | 0.00 | 0.00 | 0.00 | 54 | 1207.4 |
| 20260505171148 | 16 | 124 | 3.2 | 3.2 | 0.00 | 0.00 | 0.00 | 54 | 1207.4 |
| 20260505170648 | 16 | 158 | 3.2 | 4.8 | 0.00 | 0.00 | 0.00 | 54 | 1207.4 |
| 20260505165956 | 16 | 68 | 3.2 | 4.8 | 0.00 | 0.00 | 0.00 | 54 | 1207.4 |
| 20260505165456 | 16 | 112 | 1.6 | 4.8 | 0.00 | 0.00 | 0.00 | 54 | 1207.4 |
| 20260505164805 | 16 | 82 | 3.2 | 4.8 | 0.00 | 0.00 | 0.00 | 54 | 1207.4 |
| 20260505164305 | 16 | 101 | 3.2 | 4.8 | 0.00 | 0.00 | 0.00 | 54 | 1207.4 |
| 20260505163805 | 16 | 90 | 3.2 | 4.8 | 0.00 | 0.00 | 0.00 | 54 | 1206.4 |
| 20260505163305 | 16 | 75 | 3.2 | 4.8 | 0.00 | 0.00 | 0.00 | 54 | 1206.4 |
| 20260505162805 | 16 | 45 | 4.8 | 4.8 | 0.00 | 0.00 | 0.00 | 54 | 1206.4 |
| 20260505162114 | 16 | 112 | 1.6 | 1.6 | 0.00 | 0.00 | 0.00 | 54 | 1204.4 |
| 20260505161614 | 16 | 112 | 1.6 | 6.4 | 0.00 | 0.00 | 0.00 | 54 | 1204.4 |
| 20260505161114 | 16 | 112 | 6.4 | 6.4 | 0.00 | 0.00 | 0.00 | 54 | 1205.4 |
| 20260505160614 | 16 | 180 | 6.4 | 6.4 | 0.00 | 0.00 | 0.00 | 55 | 1205.4 |
| 20260505160114 | 16 | 22 | 3.2 | 3.2 | 0.00 | 0.00 | 0.00 | 55 | 1205.4 |
| 20260505153231 | 17 | 101 | 0.0 | 3.2 | 0.00 | 0.00 | 0.00 | 55 | 1204.4 |
| 20260505152731 | 17 | 128 | 1.6 | 3.2 | 0.00 | 0.00 | 0.00 | 55 | 1203.4 |
| 20260505152231 | 17 | 112 | 3.2 | 3.2 | 0.00 | 0.00 | 0.00 | 55 | 1203.4 |
| 20260505151730 | 17 | 135 | 3.2 | 3.2 | 0.00 | 0.00 | 0.00 | 55 | 1203.4 |
| 20260505151230 | 17 | 90 | 3.2 | 4.8 | 0.00 | 0.00 | 0.00 | 55 | 1204.4 |
| 20260505150539 | 17 | 90 | 4.8 | 4.8 | 0.00 | 0.00 | 0.00 | 55 | 1204.4 |
| 20260505140348 | 18 | 112 | 4.8 | 4.8 | 0.00 | 0.00 | 0.00 | 53 | 1205.4 |
| 20260505124814 | 18 | 158 | 3.2 | 3.2 | 0.00 | 0.00 | 0.00 | 51 | 1210.4 |
| 20260505124314 | 18 | 158 | 3.2 | 3.2 | 0.00 | 0.00 | 0.00 | 50 | 1210.4 |
| 20260505123623 | 18 | 150 | 1.6 | 4.8 | 0.00 | 0.00 | 0.00 | 50 | 1210.4 |
| 20260505123123 | 18 | 158 | 1.6 | 4.8 | 0.00 | 0.00 | 0.00 | 50 | 1210.4 |
| 20260505122623 | 19 | 158 | 1.6 | 4.8 | 0.00 | 0.00 | 0.00 | 50 | 1209.4 |
| 20260505122123 | 19 | 135 | 4.8 | 4.8 | 0.00 | 0.00 | 0.00 | 50 | 1209.4 |
| 20260505121623 | 19 | 158 | 3.2 | 8.0 | 0.00 | 0.00 | 0.00 | 50 | 1209.4 |
| 20260505120932 | 19 | 172 | 6.4 | 8.0 | 0.00 | 0.00 | 0.00 | 51 | 1207.4 |
| 20260505120432 | 19 | 146 | 3.2 | 8.0 | 0.00 | 0.00 | 0.00 | 51 | 1207.4 |
| 20260505115931 | 19 | 158 | 1.6 | 8.0 | 0.00 | 0.00 | 0.00 | 52 | 1207.4 |
| 20260505115240 | 19 | 158 | 4.8 | 9.7 | 0.00 | 0.00 | 0.00 | 52 | 1207.4 |
| 20260505114741 | 19 | 135 | 6.4 | 9.7 | 0.00 | 0.00 | 0.00 | 52 | 1207.4 |
| 20260505114241 | 19 | 152 | 4.8 | 6.4 | 0.00 | 0.00 | 0.00 | 53 | 1208.4 |
| 20260505113741 | 20 | 98 | 4.8 | 6.4 | 0.00 | 0.00 | 0.00 | 53 | 1208.4 |
| 20260505113241 | 20 | 158 | 3.2 | 6.4 | 0.00 | 0.00 | 0.00 | 53 | 1208.4 |
| 20260505112549 | 20 | 158 | 6.4 | 6.4 | 0.00 | 0.00 | 0.00 | 53 | 1209.4 |
| 20260505112049 | 20 | 158 | 6.4 | 6.4 | 0.00 | 0.00 | 0.00 | 52 | 1209.4 |
| 20260505111549 | 20 | 158 | 4.8 | 8.0 | 0.00 | 0.00 | 0.00 | 52 | 1209.4 |
| 20260505111049 | 20 | 158 | 6.4 | 8.0 | 0.00 | 0.00 | 0.00 | 52 | 1210.4 |
| 20260505110549 | 20 | 172 | 4.8 | 9.7 | 0.00 | 0.00 | 0.00 | 51 | 1210.4 |
| 20260505102207 | 20 | 165 | 3.2 | 6.4 | 0.00 | 0.00 | 0.00 | 47 | 1214.5 |
| 20260505101707 | 20 | 195 | 4.8 | 6.4 | 0.00 | 0.00 | 0.00 | 46 | 1214.5 |
| 20260505101207 | 20 | 165 | 6.4 | 6.4 | 0.00 | 0.00 | 0.00 | 46 | 1215.5 |
| 20260505100707 | 21 | 202 | 4.8 | 6.4 | 0.00 | 0.00 | 0.00 | 45 | 1215.5 |
| 20260505100207 | 21 | 202 | 4.8 | 6.4 | 0.00 | 0.00 | 0.00 | 45 | 1215.5 |
| 20260505095515 | 21 | 158 | 6.4 | 6.4 | 0.00 | 0.00 | 0.00 | 45 | 1216.5 |
| 20260505095015 | 21 | 172 | 4.8 | 6.4 | 0.00 | 0.00 | 0.00 | 44 | 1216.5 |
| 20260505094515 | 21 | 202 | 4.8 | 9.7 | 0.00 | 0.00 | 0.00 | 44 | 1216.5 |
| 20260505094015 | 21 | 202 | 6.4 | 9.7 | 0.00 | 0.00 | 0.00 | 44 | 1217.5 |
| 20260505093515 | 21 | 165 | 4.8 | 6.4 | 0.00 | 0.00 | 0.00 | 43 | 1217.5 |
| 20260505092824 | 21 | 135 | 6.4 | 6.4 | 0.00 | 0.00 | 0.00 | 43 | 1217.5 |
| 20260505092324 | 22 | 158 | 6.4 | 6.4 | 0.00 | 0.00 | 0.00 | 42 | 1217.5 |
| 20260505091633 | 22 | 202 | 4.8 | 9.7 | 0.00 | 0.00 | 0.00 | 41 | 1217.5 |
| 20260505091133 | 22 | 225 | 9.7 | 9.7 | 0.00 | 0.00 | 0.00 | 40 | 1218.5 |
| 20260505090633 | 22 | 202 | 8.0 | 11.3 | 0.00 | 0.00 | 0.00 | 40 | 1218.5 |
| 20260505090133 | 22 | 202 | 8.0 | 11.3 | 0.00 | 0.00 | 0.00 | 39 | 1218.5 |
| 20260505085633 | 22 | 158 | 9.7 | 9.7 | 0.00 | 0.00 | 0.00 | 38 | 1219.5 |
| 20260505085133 | 22 | 202 | 9.7 | 11.3 | 0.00 | 0.00 | 0.00 | 38 | 1219.5 |
| 20260505084633 | 22 | 202 | 9.7 | 11.3 | 0.00 | 0.00 | 0.00 | 37 | 1219.5 |
| 20260505084133 | 23 | 158 | 11.3 | 17.7 | 0.00 | 0.00 | 0.00 | 35 | 1219.5 |
| 20260505083633 | 23 | 158 | 17.7 | 17.7 | 0.00 | 0.00 | 0.00 | 35 | 1219.5 |
| 20260505083133 | 23 | 158 | 9.7 | 9.7 | 0.00 | 0.00 | 0.00 | 34 | 1219.5 |
| 20260505082441 | 23 | 202 | 9.7 | 9.7 | 0.00 | 0.00 | 0.00 | 34 | 1219.5 |
| 20260505081956 | 24 | 202 | 6.4 | 6.4 | 0.00 | 0.00 | 0.00 | 34 | 1219.5 |
| 20260505081251 | 24 | 270 | 6.4 | 9.7 | 0.00 | 0.00 | 0.00 | 33 | 1219.5 |
| 20260505080559 | 25 | 188 | 8.0 | 12.9 | 0.00 | 0.00 | 0.00 | 32 | 1219.5 |
| 20260505080059 | 25 | 202 | 12.9 | 12.9 | 0.00 | 0.00 | 0.00 | 31 | 1219.5 |
| 20260505075559 | 25 | 218 | 8.0 | 9.7 | 0.00 | 0.00 | 0.00 | 31 | 1219.5 |
| 20260505075059 | 26 | 232 | 9.7 | 9.7 | 0.00 | 0.00 | 0.00 | 30 | 1219.5 |
| 20260505074559 | 26 | 225 | 6.4 | 11.3 | 0.00 | 0.00 | 0.00 | 30 | 1219.5 |
| 20260505073908 | 26 | 191 | 8.0 | 11.3 | 0.00 | 0.00 | 0.00 | 28 | 1220.5 |
| 20260505073408 | 27 | 225 | 11.3 | 11.3 | 0.00 | 0.00 | 0.00 | 24 | 1220.5 |
| 20260505072908 | 27 | 248 | 4.8 | 4.8 | 0.00 | 0.00 | 0.00 | 23 | 1220.5 |
| 20260505072408 | 28 | 0.0 | 0.0 | 0.00 | 0.00 | 0.00 | 21 | 1220.5 | |
| 20260505071908 | 29 | 0.0 | 0.0 | 0.00 | 0.00 | 0.00 | 20 | 1220.5 | |
| 20260505071217 | 30 | 158 | 9.7 | 9.7 | 0.00 | 0.00 | 0.00 | 19 | 1220.5 |
| 20260505070717 | 31 | 158 | 9.7 | 9.7 | 0.00 | 0.00 | 0.00 | 19 | 1220.5 |
| 20260505070217 | 31 | 180 | 6.4 | 9.7 | 0.00 | 0.00 | 0.00 | 18 | 1220.5 |
| 20260505065717 | 28 | 180 | 6.4 | 8.0 | 0.00 | 0.00 | 0.00 | 19 | 1220.5 |
| 20260505065216 | 29 | 248 | 6.4 | 9.7 | 0.00 | 0.00 | 0.00 | 6 | 1220.5 |
| 20260505064525 | 31 | 248 | 6.4 | 9.7 | 0.00 | 0.00 | 0.00 | 2 | 1220.5 |
| 20260505064025 | 36 | 202 | 6.4 | 8.0 | 0.00 | 0.00 | 0.00 | 2 | 1220.5 |
| 20260505063525 | 43 | 188 | 1.6 | 6.4 | 0.00 | 0.00 | 0.00 | 2 | 1220.5 |
| 20260505062834 | 41 | 202 | 4.8 | 6.4 | 0.00 | 0.00 | 0.00 | 2 | 1220.5 |
| 20260505062334 | 40 | 188 | 3.2 | 9.7 | 0.00 | 0.00 | 0.00 | 2 | 1220.5 |
| 20260505061834 | 38 | 112 | 1.6 | 9.7 | 0.00 | 0.00 | 0.00 | 2 | 1220.5 |
| 20260505061334 | 40 | 158 | 8.0 | 9.7 | 0.00 | 0.00 | 0.00 | 2 | 1220.5 |
| 20260505060643 | 38 | 146 | 8.0 | 9.7 | 0.00 | 0.00 | 0.00 | 2 | 1220.5 |
| 20260505060143 | 34 | 112 | 3.2 | 4.8 | 0.00 | 0.00 | 0.00 | 11 | 1220.5 |